Regional Weather Roundup
Issued by NWS

Home | Current Version | Previous Version | Text Only | Print | Product List | Glossary On
Versions: 1 2 3 4 5 6 7 8 9 10 11 12 13 14 15 16 17 18 19 20 21 22 23 24 25 26 27 28 29 30 31 32 33 34 35 36 37 38 39 40 41 42 43 44 45 46 47 48 49 50
000
ASUS43 KTOP 231808
RWRKS

WEATHER ROUNDUP FOR KANSAS
NATIONAL WEATHER SERVICE GOODLAND KS
100 PM CDT TUE SEP 23 2014

NOTE:  "FAIR" INDICATES FEW OR NO CLOUDS BELOW 12,000 FEET WITH NO
SIGNIFICANT WEATHER AND/OR OBSTRUCTIONS TO VISIBILITY.

KSZ001>006-013>018-027>032-041>047-231900-
NORTHWEST KANSAS

CITY           SKY/WX    TMP DP  RH WIND       PRES   REMARKS
GOODLAND       SUNNY     79  57  46 E6        30.07S
6HR MIN TEMP:  56; 6HR MAX TEMP:  79;

HILL CITY      SUNNY     77  58  51 S13       30.03F
6HR MIN TEMP:  59; 6HR MAX TEMP:  77;

RUSSELL        SUNNY     70  56  61 S22G28    30.06S
6HR MIN TEMP:  56; 6HR MAX TEMP:  70; 6HR PCP:  0.44;

$$

KSZ061>065-074>080-084>089-231900-
SOUTHWEST KANSAS

CITY           SKY/WX    TMP DP  RH WIND       PRES   REMARKS
DODGE CITY     MOSUNNY   82  54  37 S23G33    30.06F
6HR MIN TEMP:  62; 6HR MAX TEMP:  82;

ELKHART          N/A     83  60  45 SW14        N/A
GARDEN CITY    PTSUNNY   81  61  50 SW14G24   30.03F
6HR MIN TEMP:  60; 6HR MAX TEMP:  83;

GREAT BEND     FAIR      73  55  53 S23G29    30.06F
LIBERAL        MOSUNNY   82  59  44 SW24      30.07F
PRATT          PTSUNNY   77  48  36 S21G31    30.10F
$$

KSZ066>073-081>083-090>101-231900-
SOUTHEAST KANSAS

CITY           SKY/WX    TMP DP  RH WIND       PRES   REMARKS
CHANUTE        MOSUNNY   73  55  53 S16       30.21F
6HR MIN TEMP:  54; 6HR MAX TEMP:  73;

COFFEYVILLE    SUNNY     74  55  51 S13G20    30.21F
6HR MIN TEMP:  55; 6HR MAX TEMP:  74;

HUTCHINSON     PTSUNNY   78  51  38 S25       30.12F
6HR MIN TEMP:  60; 6HR MAX TEMP:  79; 6HR PCP: TRACE;

MEDICINE LODGE   N/A     79  52  38 S13G24    30.09F
NEWTON         MOSUNNY   75  52  43 S16G28    30.17S
PARSONS        MOSUNNY   74  55  51 S12G18    30.22F
6HR MIN TEMP:  56; 6HR MAX TEMP:  75;

WICHITA INTL   PTSUNNY   79  51  37 S22G31    30.14F
6HR MIN TEMP:  58; 6HR MAX TEMP:  80;

WICHITA JABRA  MOSUNNY   76  51  41 S17G24    30.15F
6HR MIN TEMP:  58; 6HR MAX TEMP:  76;

WICHITA MCCONL SUNNY     78  51  38 SE15G24   30.15F
WINFIELD       SUNNY     76  54  46 S16G24    30.18F
6HR MIN TEMP:  57; 6HR MAX TEMP:  76; 6HR PCP: TRACE;

$$

KSZ007>012-019>026-033>040-048>060-102>105-231900-
NORTHEAST KANSAS

CITY           SKY/WX    TMP DP  RH WIND       PRES   REMARKS
CONCORDIA      CLOUDY    60  58  92 SE10      30.12S
6HR MIN TEMP:  57; 6HR MAX TEMP:  62; 6HR PCP:  0.40;

EMPORIA        MOSUNNY   73  55  53 S21G28    30.18F
6HR MIN TEMP:  53; 6HR MAX TEMP:  73;

LAWRENCE       CLOUDY    73  56  54 S16       30.21R
6HR MIN TEMP:  53; 6HR MAX TEMP:  73;

MANHATTAN      CLOUDY    70  57  63 S17G24    30.14F
6HR MIN TEMP:  58; 6HR MAX TEMP:  70; 6HR PCP:  0.05;

MARYSVILLE     RAIN      61  57  88 S7        30.17R
OLATHE IND     CLOUDY    69  56  62 S10       30.23R
6HR MIN TEMP:  55; 6HR MAX TEMP:  69;

OLATHE EXE     CLOUDY    69  54  58 S12       30.21F
6HR MIN TEMP:  54; 6HR MAX TEMP:  71;

SALINA         PTSUNNY   69  58  67 S16       30.11F
6HR MIN TEMP:  59; 6HR MAX TEMP:  69; 6HR PCP:  0.11;

TOPEKA BILLARD CLOUDY    74  54  49 S14G24    30.19S
6HR MIN TEMP:  56; 6HR MAX TEMP:  74;

TOPEKA FORBES  PTSUNNY   72  54  53 S17       30.19S
6HR MIN TEMP:  55; 6HR MAX TEMP:  73;

$$



USA.gov is the U.S. government's official web portal to all federal, state and local government web resources and services.